Cosmos 2056 Rocket - Orbit

View from above orbital plane
View from above orbital plane
View from above satellite
View from above satellite

Ground track
Ground track

The orbit data is extracted from the following two-line orbital elements,

1 20433U 90004B   13142.50548811  .00000142  00000-0  58162-4 0  4446
2 20433 074.0359 204.4662 0042188 334.7607 124.2915 14.35433607221835
Epoch (UTC): 22 May 2013 12:07:54
Eccentricity: 0.0042188
inclination: 74.0359°
perigee height: 743 km
apogee height: 804 km
right ascension of ascending node: 204.4662°
argument of perigee: 334.7607°
revolutions per day: 14.35433607
mean anomaly at epoch: 124.2915°
orbit number at epoch: 22183

The dashed part of the orbit path shows where the satellite is in the earth's shadow,  

Developed and maintained by Chris Peat, Heavens-Above GmbH. Please read the updated FAQ before sending e-mail. Imprint. DLR